Find Starlink 32680

NORAD ID: 62423 Int'l Des: 2024-249 Owner: SPXS Country: US Constellation: starlink operational
LEOCIRCULAR

当前视图

正在加载3D地球...

About Starlink 32680

Starlink 32680 (NORAD 62423) is a starlink constellation satellite (v2 mini) launched Dec 23, 2024 by SPXS of US. It operates in LEO, CIRCULAR orbit with a mass of 730.00 kg.

即将过境

Passes for default location (London). Set your location on the main map for personalized predictions.

高度历史

Loading altitude history...

两行轨道根数

1 62423U 24249Q 26263.35787664 .00006689 00000-0 25234-3 0 9991
2 62423 43.0009 294.8618 0001575 252.4246 107.6433 15.27584745 97587
Epoch: Sep 20, 2026 • Age: 18 hours

当前状态

高度 486.7 km
远地点 / 近地点 N/A
速度 7.63 km/s
星下点 40.85°N, 34.53°W
发射日期 Dec 23, 2024
运行时间 1.7 years
类型 internet

技术详情

分类 Payload
质量 730.00 kg
干质量 700.00 kg
长度 0.30 m
跨度 29.00 m
形状 ? Box + pan
制造商 SPXS
平台类型 Starlink V2M
阶段状态 In Orbit
所有者/国家 SPXS/US

Most Searched